Probability
0 0 0 0 0 0 0 0 0 0 0 0 0 0 0 0 0 0 0 0 0 0 0 0 0 0 0 0 0 0 0 0 0 0 0 0 0 0 0 0 0 0 0 0
0 0 0 0 0 0 0 0 0 0 0 0 0 0 0 0 0 0 0 0 0 0 0 0 0 0 0 0 0 0 0 0 0 0 0 0 0 0 0 0 0 0 0 0
0 0 0 0 0 0 0 0 0 0 0 0 0 0 0 0 0 0 0 0 0 0 0 0 0 0 0 0 0 0 0 0 0 0 0 0 0 0 0 0 0 0 0 0
0 0 0 0 0 0 0 0 0 0 0 0 0 0 0 0 0 0 0 0 0 0 0 0 0 0 0 0 0 0 0 0 0 0 0 0 0 0 0 0 0 0 0 0
0 0 0 0 0 0 0 0 0 0 0 0 0 0 0 0 0 0 0 0 0 0 0 0 0 0 0 0 0 0 0 0 0 0 0 0 0 0 0 0 0 0 0 0
0 0 0 0 0 0 0 0 0 0 0 0 0 0 0 0 0 0 0 0 0 0 0 0 0 0 0 0 0 0 0 0 0 0 0 0 0 0 0 0 0 0 0 0
0 0 0 0 0 0 0 0 0 0 0 0 0 0 0 0 0 0 0 0 0 0 0 0 0 0 0 0 0 0 0 0 0 0 0 0 0 0 0 0 0 0 0 0
0 0 0 0 0 0 0 0 0 0 0 0 0 0 0 0 0 0 0 0 0 0 0 0 0 0 0 0 0 0 0 0 0 0 0 0 0 0 0 0 0 0 0 0
0 0 0 0 0 0 0 0 0 0 0 0 0 0 0 0 0 0 0 0 0 0 0 0 0 0 0 0 0 0 0 0 0 0 0 0 0 0 0 0 0 0 0 0
0 0 0 0 0 0 0 0 0 0 0 0 0 0 0 0 0 0 0 0 0 0 0 0 0 0 0 0 0 0 0 0 0 0 0 0 0 0 0 0 0 0 0 0
0 0 0 0 0 0 0 0 0 0 0 0 0 0 0 0 0 0 0 0 0 0 0 0 0 0 0 0 0 0 0 0 0 0 0 0 0 0 0 0 0 0 0 0
0 0 0 0 0 0 0 0 0 0 0 0 0 0 0 0 0 0 0 0 0 0 0 0 0 0 0 0 0 0 0 0 0 0 0 0 0 0 0 0 0 0 0 0
0 0 0 0 0 0 0 0 0 0 0 0 0 0 0 0 0 0 0 0 0 0 0 0 0 0 0 0 0 0 0 0 0 0 0 0 0 0 0 0 0 0 0 0
0 0 0 0 0 0 0 0 0 0 0 0 0 0 0 0 0 0 0 0 0 0 0 0 0 0 0 0 0 0 0 0 0 0 0 0 0 0 0 0 0 0 0 0
0 0 0 0 0 0 0 0 0 0 0 0 0 0 0 0 0 0 0 0 0 0 0 0 0 0 0 0 0 0 0 0 0 0 0 0 0 0 0 0 0 0 0 0
0 0 0 0 0 0 0 0 0 0 0 0 0 0 0 0 0 0 0 0 0 0 0 0 0 0 0 0 0 0 0 0 0 0 0 0 0 0 0 0 0 0 0 0
0 0 0 0 0 0 0 0 0 0 0 0 0 0 0 0 0 0 0 0 0 0 0 0 0 0 0 0 0 0 0 0 0 0 0 0 0 0 0 0 0 0 0 0
0 0 0 0 0 0 0 0 0 0 0 0 0 0 0 0 0 0 0 0 0 0 0 0 0 0 0 0 0 0 0 0 0 0 0 0 0 0 0 0 0 0 0 0
0 0 0 0 0 0 0 0 0 0 0 0 0 0 0 0 0 0 0 0 0 0 0 0 0 0 0 0 0 0 0 0 0 0 0 0 0 0 0 0 0 0 0 0
0 0 0 0 0 0 0 0 0 0 0 0 0 0 0 0 0 0 0 0 0 0 0 0 0 0 0 0 0 0 0 0 0 0 0 0 0 0 0 0 0 0 0 0
0 0 0 0 0 0 0 0 0 0 0 0 0 0 0 0 0 0 0 0 0 0 0 0 0 0 0 0 0 0 0 0 0 0 0 0 0 0 0 0 0 0 0 0
0 0 0 0 0 0 0 0 0 0 0 0 0 0 0 0 0 0 0 0 0 0 0 0 0 0 0 0 0 0 0 0 0 0 0 0 0 0 0 0 0 0 0 0
0 0 0 0 0 0 0 0 0 0 0 0 0 0 0 0 0 0 0 0 0 0 0 0 0 0 0 0 0 0 0 0 0 0 0 0 0 0 0 0 0 0 0 0
0 0 0 0 0 0 0 0 0 0 0 0 0 0 0 0 0 0 0 0 0 0 0 0 0 0 0 0 0 0 0 0 0 0 0 0 0 0 0 0 0 0 0 0
0 0 0 0 0 0 0 0 0 0 0 0 0 0 0 0 0 0 0 0 0 0 0 0 0 0 0 0 0 0 0 0 0 0 0 0 0 0 0 0 0 0 0 0
0 0 0 0 0 0 0 0 0 0 0 0 0 0 0 0 0 0 0 0 0 0 0 0 0 0 0 0 0 0 0 0 0 0 0 0 0 0 0 0 0 0 0 0
0 0 0 0 0 0 0 0 0 0 0 0 0 0 0 0 0 0 0 0 0 0 0 0 0 0 0 0 0 0 0 0 0 0 0 0 0 0 0 0 0 0 0 0
Wind_Speed
11 8 6 8 11 14 17 18 15 15 18 19 12 9 7 6 5 4 3 3 3 2 1 1 2 2 2 2 2 2 2 2 2 3 3 3 3 4 4 4 4 4 5 5
10 11 10 12 13 16 18 17 18 16 19 15 10 7 6 6 6 7 6 6 4 3 2 1 0 1 1 1 2 2 2 2 3 3 3 4 4 4 4 4 4 4 5 5
9 8 6 15 18 19 16 15 15 21 22 13 10 10 10 9 8 9 8 7 6 4 3 2 1 0 0 1 2 3 3 3 3 3 3 3 4 4 4 5 5 5 5 6
5 5 15 12 10 15 18 18 17 14 12 13 14 9 6 6 8 8 7 5 4 3 2 1 1 1 1 2 2 3 3 3 4 4 4 4 4 4 5 5 5 5 5 6
5 9 10 9 7 11 14 16 15 17 15 12 8 3 5 6 7 8 7 5 4 3 2 1 2 2 2 2 2 2 3 3 4 4 4 5 5 5 5 5 5 5 5 6
7 7 11 12 8 6 7 12 13 15 16 13 7 7 10 6 6 5 4 4 3 3 3 3 2 2 2 2 2 2 3 3 3 3 4 4 5 5 5 5 5 6 6 6
11 10 10 8 3 8 10 12 7 9 13 12 12 12 7 4 5 5 4 4 4 5 4 3 2 2 2 2 2 3 3 3 4 4 4 4 5 5 5 5 5 5 6 6
8 9 13 4 7 10 8 2 2 4 6 7 7 4 3 4 4 5 4 4 4 4 3 2 2 2 2 1 2 3 3 3 4 4 4 3 4 4 5 5 5 6 6 6
10 10 4 5 6 4 2 3 3 3 3 4 4 4 4 4 5 5 5 5 4 4 3 2 2 2 2 1 2 3 3 3 3 4 3 3 4 4 4 4 4 5 5 6
5 7 4 3 2 2 2 3 2 2 2 3 4 5 5 5 5 5 4 4 4 4 3 1 2 2 1 1 1 1 2 3 3 3 4 3 3 3 3 4 4 5 5 6
7 5 3 5 5 3 2 1 1 1 1 2 4 4 4 4 4 4 4 3 3 3 3 2 1 2 2 2 1 1 1 3 3 3 3 4 4 3 4 4 4 5 5 5
9 6 6 6 4 4 3 3 3 2 2 2 3 3 4 4 4 4 4 3 3 3 3 2 1 1 2 2 2 1 1 2 2 3 3 3 4 5 6 6 9 9 9 9
4 2 3 2 2 2 3 3 2 3 3 3 3 4 5 4 3 4 4 3 2 2 1 1 1 1 2 2 2 1 1 2 2 3 3 3 4 4 6 7 8 9 11 12
2 1 2 2 2 2 3 4 5 5 4 4 4 4 5 4 4 3 3 2 2 2 1 1 1 2 2 1 1 1 1 2 2 2 3 3 3 4 4 5 7 7 8 12
2 2 3 2 3 3 3 4 5 4 3 3 3 4 4 4 3 2 2 2 2 1 1 1 1 3 3 2 1 1 1 1 2 2 2 3 3 4 4 4 5 6 6 8
1 1 2 3 3 2 2 3 3 3 3 3 3 2 2 3 2 2 1 1 1 0 1 1 2 3 3 2 1 1 1 2 2 2 2 3 3 3 4 4 5 5 6 6
3 3 3 4 4 4 3 3 3 3 3 3 3 3 3 3 2 1 0 1 0 1 2 2 3 3 2 1 1 1 1 2 2 2 2 3 3 3 4 4 4 5 5 7
3 3 3 4 4 4 3 3 3 3 3 3 3 3 3 3 2 2 1 0 1 2 2 3 3 2 2 2 1 1 1 2 2 2 2 3 3 4 4 4 5 6 6 6
1 1 1 1 2 3 3 3 2 2 2 3 3 3 2 1 1 1 1 1 1 3 3 2 2 1 2 2 1 1 2 2 2 2 3 4 4 4 4 4 5 5 5 5
1 1 1 2 2 3 3 3 3 2 2 3 3 2 2 1 1 1 1 2 3 3 3 2 2 2 2 3 2 1 2 2 3 3 3 3 4 4 4 4 5 5 5 5
2 2 2 2 2 2 3 3 3 3 2 3 3 3 2 2 2 2 2 3 4 2 2 2 2 2 2 2 2 2 2 3 3 3 4 4 4 4 4 5 5 5 5 5
2 2 3 3 3 2 1 2 3 3 2 2 2 2 2 2 2 2 3 4 3 3 2 2 2 3 3 3 2 2 3 3 3 3 4 4 4 5 5 5 5 5 5 5
2 2 3 3 3 2 1 1 2 2 3 3 3 3 3 3 2 2 4 2 2 3 3 3 4 5 4 3 2 3 3 4 4 4 4 4 4 5 5 6 5 5 5 5
2 2 2 2 3 2 1 1 1 1 2 2 2 3 3 2 2 3 3 3 3 4 3 4 6 6 4 2 2 3 3 4 4 4 4 4 4 4 5 5 5 5 5 6
2 2 3 3 2 2 2 1 1 1 1 1 2 2 2 2 3 3 2 3 4 5 4 5 7 6 4 3 3 4 4 4 4 4 4 5 5 5 5 5 5 5 5 5
2 2 2 2 2 2 2 2 1 1 1 1 2 2 2 2 2 3 3 3 4 4 4 4 4 4 3 4 4 4 4 5 5 5 5 5 5 5 5 5 6 6 5 5
1 1 1 1 1 2 2 2 2 2 2 2 3 2 2 2 2 3 3 3 3 3 3 3 3 3 4 4 4 5 4 4 5 5 5 5 5 5 6 6 6 5 5 5
Wind_Direction
238 239 223 225 223 217 221 226 233 239 243 251 244 231 220 207 199 199 210 217 220 229 262 330 357 5 16 12 18 35 53 50 25 7 5 1 353 341 331 326 317 309 303 298
241 237 231 241 234 228 228 229 236 246 252 251 245 229 220 204 198 206 216 220 218 217 223 230 259 345 359 8 16 33 49 37 19 14 12 5 350 338 333 328 320 315 308 302
240 239 236 241 229 226 227 223 222 236 244 248 248 227 213 207 208 216 221 217 210 208 209 210 210 138 13 5 30 47 45 29 15 7 3 354 347 345 339 331 325 318 311 306
225 222 237 241 218 215 225 232 225 230 240 238 242 237 213 200 206 221 224 220 210 195 190 192 119 74 52 38 41 46 39 24 12 4 356 353 352 347 339 331 324 317 315 311
209 233 255 267 232 200 210 234 225 227 236 242 243 242 249 219 206 214 217 205 192 175 163 127 82 63 76 62 51 43 25 11 359 354 351 349 347 343 337 332 328 322 319 319
210 218 228 237 225 194 177 241 233 221 229 233 211 227 244 211 197 200 183 166 155 138 124 119 90 69 77 63 45 16 354 347 347 351 347 342 338 334 332 330 324 322 318 318
221 232 249 247 209 140 185 233 231 211 221 222 217 228 231 170 169 169 160 149 137 132 128 124 102 99 97 76 31 348 344 348 350 349 346 342 338 334 329 326 323 323 318 316
203 222 243 209 159 187 214 214 216 218 218 214 219 219 191 166 156 153 147 137 131 128 123 108 98 107 99 54 4 353 351 350 349 348 346 348 340 333 331 328 325 325 324 322
204 221 233 174 192 214 198 205 225 229 229 187 193 204 193 179 163 154 144 136 125 124 114 79 65 86 102 22 4 357 354 346 339 339 344 346 338 333 333 331 326 326 328 325
236 246 241 227 217 230 214 215 234 226 197 181 183 183 178 164 153 145 135 132 129 128 124 93 48 50 54 21 9 -0 345 334 333 338 341 343 338 333 329 327 326 324 324 321
242 258 281 255 230 222 221 201 155 114 146 173 160 169 163 153 145 136 123 118 123 131 131 116 61 32 3 355 357 355 344 340 338 343 337 333 335 326 319 308 308 308 305 305
230 218 213 233 217 194 193 203 189 155 123 117 139 143 130 124 117 114 111 104 104 108 114 98 62 16 345 341 338 331 343 346 335 332 331 332 331 326 323 314 318 316 312 310
242 252 241 243 195 171 178 178 151 129 133 122 104 115 116 110 99 96 91 86 86 84 80 65 36 350 338 341 347 338 319 327 328 329 328 329 330 327 323 325 325 327 330 332
252 207 234 226 216 142 127 118 102 88 84 96 103 102 104 105 101 100 95 85 81 75 56 32 360 327 332 341 357 345 328 322 317 313 312 311 311 310 310 315 320 320 328 333
270 246 213 163 122 111 111 114 111 108 101 87 91 102 114 123 124 113 96 91 94 81 27 1 339 323 338 349 349 329 318 314 310 302 300 300 304 305 304 305 305 308 317 327
251 75 118 141 156 148 134 137 148 157 143 128 116 110 110 114 114 105 91 103 118 260 307 311 303 308 322 329 324 312 305 309 304 300 303 303 302 301 301 302 303 306 310 316
170 192 195 203 201 193 191 183 175 168 156 151 150 134 121 117 114 114 53 38 110 258 275 273 280 294 302 300 296 297 298 303 301 296 290 289 290 289 289 291 293 294 296 308
220 216 203 198 197 190 188 171 160 160 166 162 147 145 149 159 186 218 236 324 324 305 295 279 271 283 303 302 278 273 272 277 281 279 283 286 286 285 283 284 289 293 299 310
205 180 163 158 163 162 165 169 164 154 149 150 156 167 172 181 191 208 229 256 276 290 296 293 305 342 306 289 267 256 263 272 278 277 276 281 283 281 282 286 287 288 294 301
129 134 142 139 134 149 156 157 150 151 159 154 151 155 175 205 188 194 222 252 251 253 272 286 290 276 275 281 288 257 257 265 273 279 277 276 280 284 284 284 286 289 291 292
168 161 157 155 150 151 158 157 156 164 165 160 168 185 200 216 204 198 219 266 273 259 267 274 271 269 270 271 269 258 258 263 269 274 277 278 281 282 282 283 283 284 285 288
177 171 172 163 152 148 145 147 154 158 161 164 170 176 187 217 224 233 238 240 262 273 271 267 266 268 274 275 264 258 260 264 268 270 271 272 273 276 279 280 281 281 280 281
174 171 169 167 159 148 119 137 162 169 181 189 193 199 208 221 220 228 263 254 252 268 270 266 274 279 278 271 263 263 265 267 268 267 267 268 268 270 274 276 277 279 281 283
159 159 156 139 128 134 163 187 169 184 194 209 218 217 213 230 256 245 248 272 277 283 280 277 282 287 285 270 266 266 266 267 268 269 270 270 269 268 270 273 277 279 279 281
163 157 152 154 166 190 194 178 170 193 198 229 245 241 230 220 233 257 264 271 278 284 286 289 291 292 285 268 264 264 265 263 263 265 266 267 269 269 269 269 271 274 274 275
168 176 188 198 201 191 181 180 203 221 219 261 279 263 254 249 247 257 263 265 267 274 276 279 279 281 274 268 264 262 263 267 268 265 263 264 266 266 267 268 269 269 271 272
154 156 158 196 216 197 189 192 210 230 224 230 261 261 253 259 261 263 265 267 270 270 271 272 272 270 270 269 268 266 265 264 263 262 262 262 262 263 265 266 267 268 270 272